IU2GZQ-13 Weather Reports


time (UTC)temp
F
wind
direction
speed
knots
gust
knots
rain 1hr
in
rain 24hr
in
rain mn
in
humidity
%
barometer
mb
20260507034030 54 349 0.0 0.9 0.00 0.55 0.00 93 1012.4
20260507033207 54 0.0 0.0 0.00 0.55 0.00 93 1012.4
20260507032044 54 0.0 0.0 0.00 0.55 0.00 93 1012.2
20260507030042 54 109 1.7 2.6 0.00 0.55 0.00 93 1012.3
20260507025200 54 97 1.7 2.6 0.00 0.55 0.00 92 1012.2
20260507024055 54 85 1.7 2.6 0.00 0.55 0.00 92 1012.2
20260507023031 54 117 0.9 2.6 0.00 0.55 0.00 91 1012.1
20260507022148 55 89 1.7 3.5 0.00 0.55 0.00 91 1012.0
20260507021125 55 88 1.7 2.6 0.00 0.55 0.00 91 1012.2
20260507015140 55 91 1.7 3.5 0.00 0.55 0.00 90 1012.0
20260507014037 55 86 1.7 3.5 0.00 0.55 0.00 90 1012.0
20260507013115 56 101 1.7 2.6 0.00 0.55 0.00 90 1011.8
20260507012133 56 102 1.7 3.5 0.00 0.55 0.00 90 1011.8
20260507010025 56 88 1.7 5.2 0.00 0.55 0.00 92 1011.9
20260507005042 56 86 0.9 2.6 0.00 0.55 0.00 92 1012.0
20260507004140 56 82 1.7 3.5 0.00 0.55 0.00 92 1012.1
20260507003117 55 80 1.7 3.5 0.00 0.55 0.00 92 1012.1
20260507002154 55 110 1.7 2.6 0.00 0.55 0.00 92 1012.1
20260507001152 56 89 1.7 2.6 0.00 0.55 0.00 93 1012.1
20260507000129 56 85 1.7 3.5 0.00 0.55 0.00 92 1011.8
20260506235108 56 96 1.7 2.6 0.00 0.55 0.00 92 1011.8
20260506234103 56 96 1.7 5.2 0.00 0.55 0.00 91 1011.7
20260506233142 56 90 0.9 1.7 0.00 0.55 0.00 91 1011.8
20260506232101 56 96 0.0 1.7 0.00 0.55 0.00 91 1011.9
20260506231038 56 84 0.0 1.7 0.00 0.55 0.00 91 1011.7
20260506230036 56 98 0.9 1.7 0.00 0.55 0.00 91 1011.6
20260506225050 56 75 0.0 1.7 0.00 0.55 0.00 92 1011.6
20260506224107 56 95 1.7 2.6 0.00 0.55 0.00 93 1011.6
20260506223024 56 82 0.9 3.5 0.00 0.55 0.00 93 1011.7
20260506222121 56 323 0.0 1.7 0.00 0.55 0.00 93 1011.6
20260506221018 56 344 0.9 1.7 0.00 0.55 0.00 93 1011.8
20260506220035 57 94 0.0 0.9 0.00 0.55 0.55 92 1011.7
20260506215032 57 92 0.0 1.7 0.00 0.55 0.55 92 1011.6
20260506214029 57 90 0.9 1.7 0.00 0.55 0.55 92 1011.6
20260506213026 57 90 2.6 5.2 0.00 0.55 0.55 92 1011.4
20260506212024 57 90 0.0 2.6 0.00 0.55 0.55 93 1011.6
20260506211021 58 93 0.9 2.6 0.00 0.55 0.55 93 1011.5
20260506210040 58 80 2.6 3.5 0.00 0.55 0.55 94 1011.4
20260506205035 58 86 0.9 2.6 0.00 0.55 0.55 94 1011.3
20260506204213 59 89 2.6 6.1 0.00 0.55 0.55 93 1011.3
20260506203030 59 99 1.7 3.5 0.00 0.55 0.55 92 1011.3
20260506202107 59 93 0.9 2.6 0.00 0.55 0.55 92 1011.1
20260506201205 60 86 2.6 5.2 0.00 0.55 0.55 91 1010.9
20260506195039 61 100 2.6 3.5 0.00 0.55 0.55 90 1011.1
20260506194056 61 93 2.6 7.0 0.00 0.55 0.55 89 1011.1
20260506192030 62 79 2.6 5.2 0.00 0.55 0.55 87 1010.9
20260506191027 62 81 2.6 7.0 0.00 0.55 0.55 87 1010.9
20260506190024 62 103 1.7 5.2 0.00 0.55 0.55 87 1010.4
20260506185020 62 114 0.0 1.7 0.00 0.55 0.55 86 1010.2
20260506184057 62 119 0.9 1.7 0.00 0.55 0.55 86 1010.2
20260506183033 63 86 1.7 6.1 0.00 0.55 0.55 85 1010.1
20260506182030 64 95 1.7 6.1 0.00 0.55 0.55 84 1009.8
20260506181027 64 89 0.9 2.6 0.00 0.55 0.55 84 1009.9
20260506180024 65 84 1.7 5.2 0.00 0.55 0.55 82 1009.6
20260506175021 65 95 2.6 5.2 0.00 0.55 0.55 81 1009.3
20260506174138 65 82 4.3 7.8 0.00 0.55 0.55 80 1009.3
20260506173035 66 114 1.7 5.2 0.00 0.55 0.55 79 1009.0
20260506172052 66 94 2.6 11.3 0.00 0.55 0.55 79 1008.8
20260506171030 66 85 1.7 5.2 0.00 0.55 0.55 79 1008.8
20260506170046 66 77 4.3 9.6 0.00 0.55 0.55 77 1008.5
20260506165023 67 78 3.5 8.7 0.00 0.55 0.55 76 1008.4
20260506164101 68 66 4.3 13.0 0.00 0.55 0.55 75 1008.4
20260506163038 67 95 6.1 11.3 0.00 0.55 0.55 75 1008.3
20260506162035 68 96 4.3 13.9 0.00 0.55 0.55 74 1008.3
20260506161113 67 85 5.2 12.2 0.00 0.55 0.55 74 1008.3
20260506160129 68 73 5.2 12.2 0.00 0.55 0.55 74 1008.4
20260506155028 68 79 4.3 11.3 0.00 0.55 0.55 75 1008.4
20260506154024 68 91 4.3 9.6 0.00 0.55 0.55 74 1008.4
20260506153041 67 89 4.3 13.0 0.00 0.55 0.55 74 1008.4
20260506152038 68 82 5.2 12.2 0.00 0.55 0.55 77 1008.5
20260506151136 67 105 2.6 8.7 0.00 0.55 0.55 77 1008.7
20260506150033 67 122 3.5 8.7 0.00 0.55 0.55 80 1008.9
20260506145050 66 61 3.5 9.6 0.00 0.55 0.55 81 1009.0
20260506144028 66 94 3.5 8.7 0.00 0.55 0.55 80 1009.1
20260506143025 65 90 5.2 11.3 0.00 0.55 0.55 80 1009.1
20260506142045 65 98 3.5 11.3 0.00 0.55 0.55 82 1009.3
20260506141020 65 90 4.3 14.8 0.00 0.55 0.55 83 1009.4
20260506135034 65 86 5.2 13.0 0.00 0.55 0.55 84 1009.6
20260506134031 64 84 3.5 7.0 0.00 0.55 0.55 84 1009.8
20260506133029 66 82 4.3 12.2 0.00 0.56 0.55 83 1009.9
20260506132046 66 108 5.2 13.0 0.00 0.56 0.55 83 1010.0
20260506131023 66 83 4.3 14.8 0.00 0.56 0.55 84 1010.0
20260506130019 65 80 4.3 12.2 0.00 0.56 0.55 85 1009.9
20260506125016 65 90 5.2 13.9 0.00 0.56 0.55 83 1010.0
20260506124135 65 75 4.3 8.7 0.00 0.56 0.55 85 1010.0
20260506123112 63 86 4.3 12.2 0.00 0.56 0.55 88 1010.1
20260506122131 63 54 4.3 12.2 0.00 0.56 0.55 87 1010.2
20260506121046 63 75 6.1 14.8 0.00 0.56 0.55 89 1010.2
20260506120023 62 88 6.1 12.2 0.00 0.56 0.55 90 1010.3
20260506115040 62 82 4.3 11.3 0.00 0.56 0.55 91 1010.4
20260506114018 61 89 3.5 11.3 0.00 0.56 0.55 92 1010.5
20260506113135 61 88 4.3 13.0 0.02 0.56 0.55 92 1010.4
20260506112153 61 113 3.5 9.6 0.04 0.56 0.55 93 1010.3
20260506111110 62 97 4.3 9.6 0.04 0.56 0.55 94 1010.3
20260506110027 61 101 2.6 7.0 0.04 0.56 0.55 94 1010.4
20260506105026 61 113 3.5 7.8 0.04 0.56 0.55 96 1010.6
20260506104102 60 88 4.3 12.2 0.04 0.56 0.55 95 1010.9
20260506103120 60 92 3.5 7.8 0.02 0.55 0.53 94 1011.1
20260506102116 60 104 3.5 9.6 0.00 0.52 0.51 93 1010.8
20260506101033 60 68 5.2 13.0 0.00 0.53 0.51 93 1010.7
20260506100050 60 75 7.0 18.2 0.00 0.53 0.51 93 1010.5
20260506095027 60 102 6.1 12.2 0.00 0.53 0.51 93 1010.4
20260506094025 60 92 5.2 13.9 0.00 0.53 0.51 93 1010.5
20260506093042 60 78 7.0 14.8 0.00 0.54 0.51 96 1010.3
20260506092019 59 91 5.2 13.9 0.00 0.54 0.51 97 1010.5
20260506091017 58 75 6.1 12.2 0.01 0.55 0.51 97 1010.5
20260506090034 58 73 6.1 15.6 0.01 0.57 0.51 97 1010.4
20260506085051 58 75 4.3 11.3 0.01 0.60 0.51 98 1010.6
20260506084209 58 98 4.3 14.8 0.01 0.63 0.51 98 1010.6
20260506083126 57 83 3.5 9.6 0.02 0.70 0.51 99 1010.7
20260506082123 57 98 2.6 7.8 0.02 0.75 0.51 99 1010.6
20260506081021 56 109 2.6 5.2 0.02 0.78 0.50 99 1011.2
20260506073130 56 95 2.6 7.8 0.03 0.79 0.49 99 1010.8
20260506072108 56 156 0.9 2.6 0.03 0.78 0.48 99 1010.9
20260506071044 56 116 1.7 3.5 0.05 0.78 0.48 99 1010.9
20260506062131 55 96 1.7 5.2 0.20 0.78 0.46 99 1011.4
20260506061148 55 96 1.7 5.2 0.24 0.77 0.44 99 1011.4
20260506051053 55 129 0.9 3.5 0.15 0.56 0.20 98 1011.7
20260506045026 55 134 1.7 2.6 0.15 0.50 0.15 98 1011.3
20260506044043 55 145 0.0 1.7 0.13 0.48 0.13 98 1011.1
20260506043101 55 344 0.0 1.7 0.10 0.46 0.10 98 1010.9
20260506042018 55 224 0.0 1.7 0.07 0.43 0.07 98 1011.3
20260506041035 55 123 0.0 1.7 0.06 0.41 0.06 98 1011.3
20260506040132 55 152 0.0 1.7 0.01 0.36 0.01 98 1011.2
20260506035029 55 132 0.0 1.7 0.00 0.35 0.00 98 1011.0